Location: Beadle
(51.4667°N, 109.0000°W)
Time: 17:46:48
(UTC+00:00)

O/OREOS (USA 219) - Pass Details

Date: 04 July 2022
Orbit: 621 x 646 km, 72.0° (Epoch: 22 May)

Event Time Altitude Azimuth Distance (km) Brightness Sun altitude
Rises 04:59:02 0° 337° (NNW) 2,964 ? -9.4°
Reaches altitude 10° 05:02:01 10° 357° (N) 2,054 ? -9.7°
Maximum altitude 05:05:09 18° 40° (NE) 1,597 ? -9.9°
Drops below altitude 10° 05:08:18 10° 83° (E) 2,051 ? -10.2°
Enters shadow 05:10:41 - 100° (E) 2,767 ? -10.4°
